EW4258 Weather Reports


Display with metric or nautical units.
time (UTC)temp
F
wind
direction
speed
MPH
gust
MPH
rain 1hr
in
rain 24hr
in
rain mn
in
humidity
%
barometer
mb
20260508130110 69 202 4.0 4.0 0.00 0.00 0.00 36 1014.8
20260508125110 69 360 4.0 7.0 0.00 0.00 0.00 36 1014.8
20260508124114 68 225 3.0 6.0 0.00 0.00 0.00 35 1015.0
20260508123114 68 247 3.0 3.0 0.00 0.00 0.00 36 1015.0
20260508122114 68 202 3.0 2.0 0.00 0.00 0.00 36 1014.8
20260508121114 68 315 3.0 3.0 0.00 0.00 0.00 36 1014.8
20260508120114 69 157 1.0 1.0 0.00 0.00 0.00 39 1014.8
20260508115116 68 225 2.0 2.0 0.00 0.00 0.00 39 1014.8
20260508114114 68 225 2.0 4.0 0.00 0.00 0.00 42 1015.0
20260508113115 68 247 4.0 4.0 0.00 0.00 0.00 42 1015.0
20260508112114 68 270 3.0 3.0 0.00 0.00 0.00 41 1015.0
20260508111114 67 225 2.0 6.0 0.00 0.00 0.00 45 1015.0
20260508110115 66 360 2.0 2.0 0.00 0.00 0.00 44 1015.3
20260508105113 65 225 2.0 4.0 0.00 0.00 0.00 46 1015.3
20260508104113 65 225 2.0 2.0 0.00 0.00 0.00 47 1015.6
20260508103113 64 67 1.0 2.0 0.00 0.00 0.00 48 1015.6
20260508102113 64 135 1.0 2.0 0.00 0.00 0.00 49 1015.8
20260508101113 63 247 1.0 0.0 0.00 0.00 0.00 50 1015.8
20260508100113 62 247 1.0 3.0 0.00 0.00 0.00 50 1016.1
20260508095113 60 247 1.0 0.0 0.00 0.00 0.00 48 1016.1
20260508094113 60 202 3.0 3.0 0.00 0.00 0.00 50 1016.4
20260508092113 59 247 2.0 2.0 0.00 0.00 0.00 52 1016.7
20260508091114 58 135 2.0 2.0 0.00 0.00 0.00 52 1016.7
20260508090113 58 247 2.0 4.0 0.00 0.00 0.00 53 1016.8
20260508085112 56 135 1.0 2.0 0.00 0.00 0.00 52 1016.8
20260508083112 56 135 2.0 2.0 0.00 0.00 0.00 53 1016.8
20260508082112 55 337 1.0 1.0 0.00 0.00 0.00 53 1016.9
20260508081112 56 180 2.0 2.0 0.00 0.00 0.00 55 1016.9
20260508080112 55 135 3.0 5.0 0.00 0.00 0.00 55 1017.2
20260508075112 55 90 3.0 4.0 0.00 0.00 0.00 55 1017.2
20260508074112 55 90 2.0 2.0 0.00 0.00 0.00 57 1017.2
20260508073112 54 202 1.0 0.0 0.00 0.00 0.00 60 1017.2
20260508072112 52 90 1.0 1.0 0.00 0.00 0.00 60 1017.2
20260508071112 51 135 1.0 1.0 0.00 0.00 0.00 60 1017.2
20260508070112 51 67 2.0 2.0 0.00 0.00 0.00 60 1017.2
20260508065111 50 180 2.0 2.0 0.00 0.00 0.00 61 1017.2
20260508064111 50 67 2.0 3.0 0.00 0.00 0.00 62 1016.8
20260508063111 50 247 1.0 0.0 0.00 0.00 0.00 64 1016.8
20260508060112 49 157 2.0 3.0 0.00 0.00 0.00 68 1017.0
20260508055111 48 157 1.0 1.0 0.00 0.00 0.00 69 1017.0
20260508054111 48 202 0.0 2.0 0.00 0.00 0.00 69 1017.1
20260508052111 47 180 0.0 1.0 0.00 0.00 0.00 69 1017.1
20260508045111 47 90 0.0 0.0 0.00 0.00 0.00 70 1016.8
20260508043110 47 247 1.0 2.0 0.00 0.00 0.00 70 1016.7
20260508041110 46 67 0.0 0.0 0.00 0.00 0.00 69 1016.6
20260508040110 46 135 1.0 2.0 0.00 0.00 0.00 69 1016.5
20260508035111 47 90 1.0 2.0 0.00 0.00 0.00 69 1016.5
20260508034112 46 157 0.0 0.0 0.00 0.00 0.00 70 1016.4
20260508033112 46 180 0.0 0.0 0.00 0.00 0.00 70 1016.4
20260508032111 46 202 0.0 0.0 0.00 0.00 0.00 70 1016.3
20260508031111 46 202 0.0 0.0 0.00 0.00 0.00 70 1016.3
20260508030111 46 202 1.0 1.0 0.00 0.00 0.00 70 1016.6
20260508025111 46 225 0.0 2.0 0.00 0.00 0.00 70 1016.6
20260508024111 46 157 2.0 0.0 0.00 0.00 0.00 69 1016.6
20260508023111 46 112 2.0 3.0 0.00 0.00 0.00 68 1016.6
20260508022111 47 157 0.0 1.0 0.00 0.00 0.00 70 1016.6
20260508021111 47 202 0.0 0.0 0.00 0.00 0.00 70 1016.6
20260508020111 47 180 1.0 0.0 0.00 0.00 0.00 70 1016.8
20260508014111 47 157 0.0 0.0 0.00 0.00 0.00 71 1016.8
20260508013110 47 202 0.0 0.0 0.00 0.00 0.00 72 1016.8
20260508012110 47 202 0.0 0.0 0.00 0.00 0.00 71 1016.8
20260508011110 47 45 1.0 0.0 0.00 0.00 0.00 71 1016.8
20260508010110 47 112 1.0 2.0 0.00 0.00 0.00 70 1016.9
20260508005110 47 135 1.0 2.0 0.00 0.00 0.00 70 1016.9
20260508004110 47 135 2.0 3.0 0.00 0.00 0.00 71 1017.0
20260508003110 47 45 1.0 2.0 0.00 0.00 0.00 71 1017.0
20260508002110 47 135 0.0 1.0 0.00 0.00 0.00 71 1016.9
20260508001110 47 135 0.0 0.0 0.00 0.00 0.00 71 1016.9
20260508000110 47 135 0.0 0.0 0.00 0.00 0.00 71 1017.0
20260507234110 47 135 0.0 0.0 0.00 0.00 0.00 70 1016.9
20260507233111 48 67 1.0 1.0 0.00 0.00 0.00 72 1016.9
20260507232110 48 90 0.0 1.0 0.00 0.00 0.00 72 1016.9
20260507231109 47 45 1.0 0.0 0.00 0.00 0.00 72 1016.9
20260507230110 47 135 1.0 2.0 0.00 0.00 0.00 70 1017.2
20260507225109 47 135 0.0 0.0 0.00 0.00 0.00 70 1017.2
20260507224109 47 360 0.0 0.0 0.00 0.00 0.00 69 1017.3
20260507221109 48 135 0.0 1.0 0.00 0.00 0.00 70 1017.3
20260507220109 49 90 0.0 0.0 0.00 0.00 0.00 70 1017.3
20260507215115 49 45 0.0 1.0 0.00 0.00 0.00 70 1017.3
20260507214116 49 45 0.0 0.0 0.00 0.00 0.00 70 1017.1
20260507213116 50 45 0.0 1.0 0.00 0.00 0.00 70 1017.1
20260507212116 50 90 0.0 0.0 0.00 0.00 0.00 71 1017.1
20260507211115 50 225 0.0 0.0 0.00 0.00 0.00 71 1017.1
20260507210114 50 225 0.0 0.0 0.00 0.00 0.00 71 1016.9
20260507204114 51 67 1.0 0.0 0.00 0.00 0.00 69 1016.8
20260507203114 51 135 0.0 1.0 0.00 0.00 0.00 70 1016.8
20260507202114 51 112 0.0 0.0 0.00 0.00 0.00 69 1016.7
20260507201114 51 67 1.0 2.0 0.00 0.00 0.00 69 1016.7
20260507200114 51 360 0.0 0.0 0.00 0.00 0.00 68 1016.5
20260507195114 51 292 1.0 0.0 0.00 0.00 0.00 69 1016.5
20260507194114 52 135 0.0 0.0 0.00 0.00 0.00 66 1016.2
20260507191114 52 270 0.0 0.0 0.00 0.00 0.00 64 1015.9
20260507185113 52 247 0.0 0.0 0.00 0.00 0.00 66 1015.9
20260507184113 53 247 0.0 0.0 0.00 0.00 0.00 64 1015.6
20260507183113 53 247 0.0 1.0 0.00 0.00 0.00 65 1015.6
20260507182113 53 157 1.0 0.0 0.00 0.00 0.00 64 1015.4
20260507175113 54 225 1.0 0.0 0.00 0.00 0.00 62 1015.4
20260507174114 54 225 2.0 0.0 0.00 0.00 0.00 61 1015.5
20260507173113 54 202 3.0 3.0 0.00 0.00 0.00 61 1015.5
20260507172113 54 247 2.0 4.0 0.00 0.00 0.00 60 1015.2
20260507171113 54 247 3.0 4.0 0.00 0.00 0.00 60 1015.2
20260507164113 55 247 2.0 4.0 0.00 0.00 0.00 60 1014.8
20260507163112 55 135 1.0 2.0 0.00 0.00 0.00 61 1014.8
20260507162114 56 202 2.0 2.0 0.00 0.00 0.00 60 1014.8
20260507161112 56 157 0.0 1.0 0.00 0.00 0.00 56 1014.8
20260507160112 56 67 0.0 0.0 0.00 0.00 0.00 56 1015.1
20260507155112 56 292 1.0 1.0 0.00 0.00 0.00 56 1015.1
20260507153112 55 315 1.0 0.0 0.00 0.00 0.00 60 1015.1
20260507152112 55 202 1.0 0.0 0.00 0.00 0.00 60 1014.9
20260507151112 55 337 0.0 1.0 0.00 0.00 0.00 62 1014.9
20260507150112 56 112 2.0 2.0 0.00 0.00 0.00 60 1014.6
20260507145112 56 247 2.0 3.0 0.00 0.00 0.00 58 1014.6
20260507144112 56 270 1.0 2.0 0.00 0.00 0.00 58 1014.5
20260507143112 56 247 2.0 1.0 0.00 0.00 0.00 60 1014.5
20260507141112 57 202 2.0 2.0 0.00 0.00 0.00 61 1014.6
20260507140111 57 225 2.0 5.0 0.00 0.00 0.00 63 1014.7
20260507135112 56 247 2.0 2.0 0.00 0.00 0.00 62 1014.7
20260507134111 56 157 1.0 1.0 0.00 0.00 0.00 63 1014.5
20260507133111 55 157 1.0 3.0 0.00 0.00 0.00 64 1014.5
20260507132116 55 112 1.0 1.0 0.00 0.00 0.00 63 1014.6
20260507131116 54 202 2.0 0.0 0.00 0.00 0.00 65 1014.6